Weather History for KDOV - December, 2013

Change the Weather History Date:

Monday, December 2, 2013

  Actual Average Record
Temperature  
Mean Temperature 39 °F -  
Max Temperature 48 °F 52 °F 67 °F (1977)
Min Temperature 30 °F 32 °F 12 °F (1967)
Degree Days  
Heating Degree Days 26    
Moisture  
Dew Point 31 °F    
Average Humidity 79    
Maximum Humidity 100    
Minimum Humidity 43    
Precipitation  
Precipitation 0.00 in - - ()
Sea Level Pressure  
Sea Level Pressure 29.95 in    
Wind  
Wind Speed 3 mph (North)    
Max Wind Speed 6 mph    
Max Gust Speed -    
Visibility 9 miles    
Events      
Averages and records for this station are not official NWS values.
T = Trace of Precipitation, MM = Missing Value Source: NWS Daily Summary

Daily Weather History Graph

Daily Weather History Graph

Search for Another Location

Airport or City:

Trip Planner

Search our weather history database for the weather conditions in past years. The results will help you decide how hot, cold, wet, or windy it might be!

Date:

Astronomy

Dec. 02, 2013 Rise Set
Actual Time 7:03 AM EST 4:39 PM EST
Civil Twilight 6:33 AM EST 5:08 PM EST
Nautical Twilight 6:00 AM EST 5:42 PM EST
Astronomical Twilight 5:28 AM EST 6:14 PM EST
Moon 6:26 AM EST (12/2) 4:39 PM EST (12/2)
Length of Visible Light 10h 35m
Length of Day
9h 36m
Waning Crescent, 0% of the Moon is Illuminated
Dec 2
Waning Crescent
Dec 2
New
Dec 9
First Quarter
Dec 17
Full
Dec 25
Last Quarter

Hourly Weather History & Observations

Time (EST) Temp. Windchill Dew Point Humidity Pressure Visibility Wind Dir Wind Speed Gust Speed Precip Events Conditions
12:58 AM 34.0 °F - 32.0 °F 92% 30.02 in 10.0 mi SSW 2.3 mph - N/A   Clear
1:18 AM 33.8 °F - 32.0 °F 93% 30.01 in 8.0 mi South 2.3 mph - N/A   Clear
1:58 AM 32.5 °F - 31.3 °F 95% 30.01 in 6.0 mi South 2.3 mph - N/A   Clear
2:58 AM 31.5 °F - 30.4 °F 96% 30.00 in 8.0 mi Calm Calm - N/A   Clear
3:08 AM 30.2 °F - 28.4 °F 93% 29.99 in 4.0 mi WNW 2.3 mph - N/A   Clear
3:18 AM 32.0 °F 28.7 °F 30.2 °F 93% 29.98 in 5.0 mi WNW 3.5 mph - N/A   Clear
3:28 AM 32.0 °F - 32.0 °F 100% 29.98 in 10.0 mi West 2.3 mph - N/A   Partly Cloudy
3:38 AM 32.0 °F - 30.2 °F 93% 29.98 in 10.0 mi Calm Calm - N/A   Mostly Cloudy
3:48 AM 30.2 °F - 28.4 °F 93% 29.98 in 10.0 mi NNW 1.2 mph - N/A   Mostly Cloudy
3:58 AM 30.7 °F - 29.7 °F 96% 29.99 in 10.0 mi Calm Calm - N/A   Overcast
4:58 AM 33.8 °F - 31.3 °F 90% 29.98 in 10.0 mi Calm Calm - N/A   Overcast
5:58 AM 34.5 °F - 32.2 °F 91% 29.98 in 10.0 mi Calm Calm - N/A   Overcast
6:08 AM 35.6 °F - 32.0 °F 87% 29.97 in 9.0 mi Calm Calm - N/A   Overcast
6:18 AM 35.6 °F - 32.0 °F 87% 29.96 in 10.0 mi Calm Calm - N/A   Overcast
6:58 AM 35.6 °F 31.7 °F 32.9 °F 90% 29.98 in 10.0 mi ENE 4.6 mph - N/A   Overcast
7:58 AM 38.1 °F 33.7 °F 35.4 °F 90% 29.98 in 6.0 mi ESE 5.8 mph - N/A   Overcast
8:58 AM 41.9 °F 39.0 °F 35.8 °F 79% 29.97 in 10.0 mi SE 4.6 mph - N/A   Overcast
9:58 AM 44.1 °F 40.8 °F 32.7 °F 64% 29.97 in 10.0 mi SE 5.8 mph - N/A   Overcast
10:58 AM 46.9 °F - 28.2 °F 48% 29.96 in 10.0 mi Variable 3.5 mph - N/A   Overcast
11:58 AM 47.5 °F - 28.9 °F 49% 29.93 in 10.0 mi NE 4.6 mph - N/A   Overcast
12:58 PM 48.9 °F - 27.5 °F 43% 29.90 in 10.0 mi Variable 3.5 mph - N/A   Overcast
1:58 PM 46.4 °F 43.5 °F 28.6 °F 50% 29.91 in 10.0 mi East 5.8 mph - N/A   Overcast
2:58 PM 44.6 °F 42.2 °F 28.4 °F 53% 29.90 in 10.0 mi ENE 4.6 mph - N/A   Overcast
3:58 PM 44.6 °F 42.2 °F 30.2 °F 57% 29.89 in 10.0 mi North 4.6 mph - N/A   Overcast
4:58 PM 42.6 °F 39.9 °F 29.3 °F 59% 29.89 in 10.0 mi North 4.6 mph - N/A   Mostly Cloudy
5:58 PM 38.1 °F 33.7 °F 30.6 °F 74% 29.89 in 10.0 mi NNW 5.8 mph - N/A   Clear
6:58 PM 36.7 °F 32.9 °F 29.5 °F 75% 29.89 in 10.0 mi North 4.6 mph - N/A   Clear
7:58 PM 38.1 °F - 29.8 °F 72% 29.89 in 10.0 mi North 2.3 mph - N/A   Clear
8:58 PM 36.1 °F 32.3 °F 30.2 °F 79% 29.89 in 10.0 mi North 4.6 mph - N/A   Overcast
9:58 PM 36.1 °F 31.4 °F 31.8 °F 84% 29.89 in 10.0 mi North 5.8 mph - N/A   Overcast
10:58 PM 37.4 °F 34.9 °F 32.9 °F 84% 29.89 in 10.0 mi North 3.5 mph - N/A   Overcast
11:58 PM 39.0 °F - 33.1 °F 79% 29.88 in 10.0 mi NW 2.3 mph - N/A   Overcast